Flag for France Weather past 2 weeks in Strasbourg, France

Now
36 °F

Mostly cloudy.


Feels Like: 27 °F
Forecast: 35 / 41 °F
Wind: 14 mph from South

Location: Strasbourg Airport

Current Time: Jan 29, 2015 at 10:30:58 AM

Latest Report: Jan 29, 2015 at 10:00 AM


Visibility: N/A

Pressure: 29.47 "Hg

Humidity: 93%

Dew point: 34 °F

Location of StrasbourgLocation

Historic Weather in Strasbourg — Graph

°F

Strasbourg temperature yesterday

Maximum temperature yesterday: 43 °F (at 2:00 PM)
Minimum temperature yesterday: 34 °F (at 2:30 AM)
Average temperature yesterday: 38 °F

Past Weeks' High & Low Weather Summary

 TemperatureHumidityPressure
High52 °F (Jan 15, 4:00 PM)100% (Jan 16, 4:00 PM)30.45 "Hg (Jan 16, 4:00 PM)
Low28 °F (Jan 18, 2:30 AM)62% (Jan 15, 4:00 PM)29.50 "Hg (Jan 29, 9:00 AM)
Average37 °F89%30.01 "Hg
* Reported Jan 14 9:00 AM — Jan 29 9:30 AM, Strasbourg, Weather by CustomWeather, © 2014

Note: Actual official high and low records may vary slightly from our data, if they occured in-between our weather recording intervals... More about our weather records

Advertising

Strasbourg weather history for previous 24 hours

 ConditionsComfort  
Time TempWeatherWind HumidityBarometerVisibility
9:30 AM
Jan 29
36 °FBroken clouds.12 mph87%29.50 "HgN/A
9:00 AM36 °FBroken clouds.13 mph87%29.50 "HgN/A
8:30 AM36 °FMostly cloudy.12 mph87%29.53 "HgN/A
8:00 AM36 °FOvercast.10 mph87%29.53 "HgN/A
7:30 AM36 °FOvercast.8 mph87%29.56 "HgN/A
7:00 AM34 °FPassing clouds.8 mph93%29.56 "HgN/A
6:30 AM36 °FPassing clouds.8 mph81%29.56 "HgN/A
6:00 AM34 °FPassing clouds.6 mph87%29.56 "HgN/A
5:30 AM36 °FPartly cloudy.6 mph81%29.59 "HgN/A
5:00 AM34 °FPassing clouds.7 mph87%29.59 "HgN/A
4:30 AM37 °FMostly cloudy.8 mph75%29.59 "HgN/A
4:00 AM39 °FPassing clouds.7 mph70%29.62 "HgN/A
3:30 AM39 °FMostly cloudy.7 mph75%29.62 "HgN/A
3:00 AM39 °FPartly cloudy.8 mph75%29.62 "HgN/A
2:30 AM39 °FPartly cloudy.10 mph75%29.62 "HgN/A
2:00 AM39 °FPassing clouds.10 mph75%29.62 "HgN/A
1:30 AM39 °FPassing clouds.9 mph75%29.62 "HgN/A
1:00 AM39 °FPartly cloudy.13 mph75%29.62 "HgN/A
12:30 AM39 °FPartly cloudy.16 mph81%29.62 "HgN/A
12:00 AM39 °FLight rain. Partly cloudy.13 mph87%29.62 "HgN/A
11:30 PM
Jan 28
39 °FLight rain. Partly cloudy.6 mph87%29.65 "HgN/A
11:00 PM43 °FLight rain. Mostly cloudy.13 mph81%29.62 "HgN/A
10:30 PM43 °FLight rain. Mostly cloudy.18 mph81%29.59 "HgN/A
10:00 PM41 °FOvercast.16 mph87%29.62 "HgN/A
9:30 PM41 °FLight rain. Overcast.17 mph81%29.62 "HgN/A
9:00 PM41 °FLight rain. Overcast.17 mph81%29.62 "HgN/A
8:30 PM41 °FOvercast.17 mph81%29.65 "HgN/A
8:00 PM41 °FOvercast.18 mph81%29.65 "HgN/A
7:30 PM41 °FOvercast.17 mph76%29.68 "HgN/A
7:00 PM41 °FPassing clouds.21 mph81%29.68 "HgN/A
6:30 PM41 °FMostly cloudy.12 mph76%29.71 "HgN/A
6:00 PM41 °FMostly cloudy.16 mph76%29.74 "HgN/A
5:30 PM41 °FMostly cloudy.16 mph76%29.77 "HgN/A
5:00 PM41 °FScattered clouds.14 mph76%29.80 "HgN/A
4:30 PM41 °FMostly cloudy.16 mph81%29.83 "HgN/A
4:00 PM41 °FMostly cloudy.16 mph81%29.86 "HgN/A
3:30 PM41 °FOvercast.15 mph81%29.89 "HgN/A
3:00 PM41 °FOvercast.16 mph81%29.89 "HgN/A
2:30 PM41 °FPartly sunny.15 mph81%29.92 "HgN/A
2:00 PM43 °FBroken clouds.14 mph76%29.95 "HgN/A
1:30 PM41 °FOvercast.12 mph81%29.98 "HgN/A
1:00 PM39 °FMostly cloudy.9 mph87%30.01 "HgN/A
12:30 PM39 °FOvercast.10 mph87%30.04 "HgN/A
12:00 PM39 °FOvercast.13 mph87%30.04 "HgN/A
11:30 AM37 °FBroken clouds.12 mph93%30.07 "HgN/A
11:00 AM37 °FOvercast.14 mph87%30.07 "HgN/A
10:30 AM37 °FBroken clouds.12 mph87%30.09 "HgN/A
10:00 AM36 °FMostly cloudy.10 mph93%30.09 "HgN/A
Weather by CustomWeather, © 2014

See weather overviewHow to use our weather pages